Kasota, MN

9:52 PM CDT on September 25, 2016 (GMT -0500)
Mankato Regional

Weather History for KMKT - December, 2013

Change the Weather History Date:

Friday, December 13, 2013

  Actual Average Record
Temperature  
Mean Temperature 14 °F -  
Max Temperature 17 °F 28 °F 48 °F (1998)
Min Temperature 12 °F 15 °F -14 °F (2010)
Degree Days  
Heating Degree Days 50    
Moisture  
Dew Point 10 °F    
Average Humidity 80    
Maximum Humidity 100    
Minimum Humidity 73    
Precipitation  
Precipitation 0.00 in - - ()
Sea Level Pressure  
Sea Level Pressure 30.13 in    
Wind  
Wind Speed 10 mph (ENE)    
Max Wind Speed 18 mph    
Max Gust Speed 23 mph    
Visibility 10 miles    
Events      
Averages and records for this station are not official NWS values.
T = Trace of Precipitation, MM = Missing Value Source: NWS Daily Summary

Daily Weather History Graph

Daily Weather History Graph

Search for Another Location

Airport or City:

Trip Planner

Search our weather history database for the weather conditions in past years. The results will help you decide how hot, cold, wet, or windy it might be!

Date:

Astronomy

Dec. 13, 2013 Rise Set
Actual Time 7:42 AM CST 4:37 PM CST
Civil Twilight 7:09 AM CST 5:10 PM CST
Nautical Twilight 6:33 AM CST 5:46 PM CST
Astronomical Twilight 5:57 AM CST 6:22 PM CST
Moon 2:25 PM CST (12/13) 4:00 AM CST (12/13)
Length of Visible Light 10h 00m
Length of Day
8h 54m
Waxing Gibbous, 88% of the Moon is Illuminated
Dec 13
Waxing Gibbous
Dec 17
Full
Dec 25
Last Quarter
Jan 1
New
Jan 7
First Quarter

Hourly Weather History & Observations

Time (CST) Temp. Windchill Dew Point Humidity Pressure Visibility Wind Dir Wind Speed Gust Speed Precip Events Conditions
12:15 AM 15.8 °F 8.6 °F 12.2 °F 86% 30.11 in 10.0 mi East 4.6 mph - N/A   Clear
12:35 AM 14.0 °F 8.2 °F 12.2 °F 93% 30.10 in 10.0 mi ESE 3.5 mph - N/A   Clear
12:55 AM 12.2 °F 4.3 °F 10.4 °F 92% 30.09 in 10.0 mi East 4.6 mph - N/A   Clear
1:15 AM 12.2 °F 2.9 °F 10.4 °F 92% 30.08 in 10.0 mi ENE 5.8 mph - N/A   Clear
1:35 AM 12.2 °F -0.2 °F 10.4 °F 92% 30.08 in 10.0 mi NE 9.2 mph - N/A   Clear
1:55 AM 14.0 °F 2.0 °F 10.4 °F 86% 30.07 in 10.0 mi ENE 9.2 mph - N/A   Clear
2:15 AM 12.2 °F 2.9 °F 12.2 °F 100% 30.07 in 10.0 mi East 5.8 mph - N/A   Clear
2:35 AM 12.2 °F 2.9 °F 10.4 °F 92% 30.07 in 10.0 mi East 5.8 mph - N/A   Clear
2:55 AM 14.0 °F 5.1 °F 10.4 °F 86% 30.08 in 10.0 mi ENE 5.8 mph - N/A   Clear
3:15 AM 12.2 °F 2.9 °F 10.4 °F 92% 30.09 in 10.0 mi ENE 5.8 mph - N/A   Clear
3:35 AM 12.2 °F 4.3 °F 10.4 °F 92% 30.08 in 10.0 mi ESE 4.6 mph - N/A   Partly Cloudy
3:55 AM 12.2 °F 1.7 °F 10.4 °F 92% 30.07 in 10.0 mi ENE 6.9 mph - N/A   Clear
4:15 AM 12.2 °F 0.7 °F 10.4 °F 92% 30.06 in 10.0 mi East 8.1 mph - N/A   Clear
4:35 AM 12.2 °F 0.7 °F 10.4 °F 92% 30.06 in 10.0 mi ENE 8.1 mph - N/A   Clear
4:55 AM 15.8 °F 3.4 °F 10.4 °F 79% 30.07 in 10.0 mi East 10.4 mph - N/A   Scattered Clouds
5:15 AM 15.8 °F 3.4 °F 10.4 °F 79% 30.08 in 10.0 mi ENE 10.4 mph - N/A   Partly Cloudy
5:35 AM 15.8 °F 5.1 °F 10.4 °F 79% 30.08 in 10.0 mi East 8.1 mph - N/A   Clear
5:55 AM 15.8 °F 3.4 °F 10.4 °F 79% 30.08 in 10.0 mi East 10.4 mph - N/A   Clear
6:15 AM 15.8 °F 2.7 °F 10.4 °F 79% 30.09 in 10.0 mi East 11.5 mph - N/A   Clear
6:35 AM 15.8 °F 4.2 °F 10.4 °F 79% 30.10 in 10.0 mi East 9.2 mph - N/A   Clear
6:55 AM 15.8 °F 2.7 °F 10.4 °F 79% 30.11 in 10.0 mi ENE 11.5 mph - N/A   Clear
7:15 AM 15.8 °F 2.1 °F 10.4 °F 79% 30.10 in 10.0 mi ENE 12.7 mph - N/A   Clear
7:35 AM 15.8 °F 0.3 °F 10.4 °F 79% 30.10 in 10.0 mi ENE 16.1 mph - N/A   Clear
7:55 AM 15.8 °F 2.1 °F 10.4 °F 79% 30.11 in 10.0 mi ENE 12.7 mph - N/A   Clear
8:15 AM 15.8 °F 1.4 °F 10.4 °F 79% 30.11 in 10.0 mi East 13.8 mph - N/A   Clear
8:35 AM 15.8 °F 1.4 °F 10.4 °F 79% 30.12 in 10.0 mi East 13.8 mph - N/A   Clear
8:55 AM 15.8 °F 1.4 °F 10.4 °F 79% 30.12 in 10.0 mi East 13.8 mph - N/A   Clear
9:15 AM 15.8 °F 2.1 °F 10.4 °F 79% 30.12 in 10.0 mi East 12.7 mph - N/A   Clear
9:35 AM 15.8 °F 2.1 °F 10.4 °F 79% 30.12 in 10.0 mi East 12.7 mph - N/A   Clear
9:55 AM 15.8 °F 1.4 °F 10.4 °F 79% 30.13 in 10.0 mi East 13.8 mph - N/A   Clear
10:15 AM 15.8 °F 2.1 °F 8.6 °F 73% 30.13 in 10.0 mi ENE 12.7 mph - N/A   Clear
10:35 AM 17.6 °F 3.7 °F 10.4 °F 73% 30.14 in 10.0 mi ENE 13.8 mph 19.6 mph N/A   Clear
10:55 AM 17.6 °F 3.7 °F 10.4 °F 73% 30.13 in 10.0 mi ENE 13.8 mph - N/A   Clear
11:15 AM 17.6 °F 3.2 °F 10.4 °F 73% 30.12 in 10.0 mi East 15.0 mph 19.6 mph N/A   Clear
11:35 AM 17.6 °F 2.7 °F 10.4 °F 73% 30.11 in 10.0 mi ENE 16.1 mph - N/A   Clear
11:55 AM 17.6 °F 2.7 °F 10.4 °F 73% 30.11 in 10.0 mi ENE 16.1 mph - N/A   Clear
12:15 PM 17.6 °F 3.7 °F 10.4 °F 73% 30.11 in 10.0 mi ENE 13.8 mph - N/A   Clear
12:35 PM 17.6 °F 4.3 °F 10.4 °F 73% 30.12 in 10.0 mi ENE 12.7 mph - N/A   Clear
12:55 PM 17.6 °F 4.3 °F 10.4 °F 73% 30.11 in 10.0 mi East 12.7 mph - N/A   Clear
1:15 PM 17.6 °F 4.3 °F 10.4 °F 73% 30.11 in 10.0 mi NE 12.7 mph 16.1 mph N/A   Clear
1:35 PM 17.6 °F 4.3 °F 10.4 °F 73% 30.11 in 10.0 mi ENE 12.7 mph - N/A   Clear
1:55 PM 17.6 °F 3.7 °F 10.4 °F 73% 30.11 in 10.0 mi ENE 13.8 mph - N/A   Clear
2:15 PM 17.6 °F 5.0 °F 10.4 °F 73% 30.10 in 10.0 mi NE 11.5 mph 17.3 mph N/A   Clear
2:35 PM 17.6 °F 2.7 °F 10.4 °F 73% 30.11 in 10.0 mi NE 16.1 mph - N/A   Clear
2:55 PM 17.6 °F 3.2 °F 10.4 °F 73% 30.12 in 10.0 mi NE 15.0 mph 21.9 mph N/A   Clear
3:15 PM 15.8 °F -0.2 °F 10.4 °F 79% 30.12 in 10.0 mi ENE 17.3 mph - N/A   Clear
3:35 PM 15.8 °F 0.3 °F 8.6 °F 73% 30.12 in 10.0 mi NE 16.1 mph - N/A   Clear
3:55 PM 15.8 °F 0.3 °F 8.6 °F 73% 30.13 in 10.0 mi ENE 16.1 mph 20.7 mph N/A   Clear
4:15 PM 15.8 °F 0.3 °F 8.6 °F 73% 30.13 in 10.0 mi NE 16.1 mph - N/A   Clear
4:35 PM 15.8 °F 0.3 °F 8.6 °F 73% 30.14 in 10.0 mi NE 16.1 mph - N/A   Clear
4:55 PM 15.8 °F 1.4 °F 10.4 °F 79% 30.14 in 10.0 mi ENE 13.8 mph - N/A   Scattered Clouds
5:15 PM 15.8 °F 0.9 °F 8.6 °F 73% 30.14 in 10.0 mi NE 15.0 mph 20.7 mph N/A   Overcast
5:35 PM 15.8 °F 1.4 °F 8.6 °F 73% 30.15 in 10.0 mi NE 13.8 mph - N/A   Mostly Cloudy
5:55 PM 15.8 °F -0.6 °F 8.6 °F 73% 30.16 in 10.0 mi NE 18.4 mph 23.0 mph N/A   Partly Cloudy
6:15 PM 14.0 °F -1.4 °F 8.6 °F 79% 30.16 in 10.0 mi NE 15.0 mph 21.9 mph N/A   Mostly Cloudy
6:35 PM 14.0 °F -0.8 °F 8.6 °F 79% 30.17 in 10.0 mi NE 13.8 mph - N/A   Overcast
6:55 PM 14.0 °F -1.4 °F 8.6 °F 79% 30.17 in 10.0 mi NE 15.0 mph - N/A   Overcast
7:15 PM 14.0 °F -0.8 °F 8.6 °F 79% 30.19 in 10.0 mi ENE 13.8 mph - N/A   Mostly Cloudy
7:35 PM 12.2 °F -2.5 °F 6.8 °F 79% 30.19 in 10.0 mi ENE 12.7 mph - N/A   Clear
7:55 PM 12.2 °F -2.5 °F 8.6 °F 85% 30.19 in 10.0 mi ENE 12.7 mph - N/A   Clear
8:15 PM 12.2 °F -3.7 °F 6.8 °F 79% 30.19 in 10.0 mi ENE 15.0 mph 18.4 mph N/A   Clear
8:35 PM 12.2 °F -2.5 °F 6.8 °F 79% 30.20 in 10.0 mi NE 12.7 mph - N/A   Clear
8:55 PM 12.2 °F -3.7 °F 6.8 °F 79% 30.20 in 10.0 mi NE 15.0 mph - N/A   Clear
9:15 PM 12.2 °F -1.8 °F 6.8 °F 79% 30.21 in 10.0 mi NE 11.5 mph - N/A   Clear
9:35 PM 12.2 °F -2.5 °F 6.8 °F 79% 30.20 in 10.0 mi ENE 12.7 mph - N/A   Clear
9:55 PM 12.2 °F -1.8 °F 6.8 °F 79% 30.20 in 10.0 mi ENE 11.5 mph - N/A   Clear
10:15 PM 12.2 °F -1.0 °F 6.8 °F 79% 30.21 in 10.0 mi NE 10.4 mph - N/A   Clear
10:35 PM 12.2 °F -1.0 °F 6.8 °F 79% 30.21 in 10.0 mi ENE 10.4 mph - N/A   Clear
10:55 PM 12.2 °F -2.5 °F 6.8 °F 79% 30.21 in 10.0 mi ENE 12.7 mph - N/A   Mostly Cloudy
11:15 PM 12.2 °F -2.5 °F 6.8 °F 79% 30.22 in 10.0 mi NE 12.7 mph - N/A   Overcast
11:35 PM 12.2 °F -2.5 °F 6.8 °F 79% 30.22 in 10.0 mi NE 12.7 mph - N/A   Overcast
11:55 PM 12.2 °F -3.7 °F 8.6 °F 85% 30.22 in 9.0 mi NE 15.0 mph - N/A   Mostly Cloudy